RH
48 49 48 38 33 45 52 51 44 42 42 45 55 66 80 82 82 74 62 62 58 54 53 48 44 45 49 46 46 44 46 44
40 39 37 41 32 25 30 35 34 29 29 35 39 44 49 50 49 54 55 52 50 49 61 51 47 50 50 49 47 51 50 52
33 27 32 37 34 30 30 28 27 30 35 40 48 46 48 51 57 66 68 69 68 69 71 84 85 70 68 61 54 46 41 40
27 24 23 23 25 28 25 27 30 48 71 88 97 100 96 91 97 100 100 100 97 86 78 76 70 59 61 62 54 52 50 51
27 22 21 25 27 28 52 64 78 91 97 94 87 76 74 77 74 69 64 60 60 63 57 50 49 45 42 41 39 40 44 41
35 31 29 30 32 52 72 76 72 80 72 65 66 65 58 48 44 42 44 44 42 45 38 34 37 37 38 41 43 42 40 46
31 36 40 46 51 51 68 70 69 66 67 64 63 51 41 43 42 40 39 38 39 38 39 43 45 46 47 45 44 46 39 38
39 43 44 48 54 64 66 66 65 61 52 50 47 43 42 41 40 43 46 45 44 47 51 58 59 58 53 52 47 31 25 26
59 61 62 59 59 57 57 55 49 45 45 46 45 48 52 53 54 56 49 52 56 49 48 57 55 52 57 42 28 23 19 17
50 50 56 60 60 56 52 46 43 42 47 44 52 67 69 63 63 64 67 65 62 54 54 46 43 40 36 28 23 19 17 17
70 68 64 59 54 47 40 39 44 52 65 71 68 80 68 76 73 68 57 50 50 45 38 34 29 24 23 22 21 17 17 16
54 53 46 40 39 41 48 52 56 67 86 85 74 74 76 66 61 61 52 44 40 32 28 24 22 20 19 19 18 17 16 16
37 36 38 41 51 63 66 80 96 88 94 88 72 83 73 66 58 57 48 44 31 24 20 18 17 15 14 14 14 14 15 15
44 46 56 78 94 94 96 100 95 93 91 78 72 87 66 59 59 58 38 24 19 18 16 14 13 12 11 11 11 12 12 12
56 75 83 81 83 94 99 97 100 99 88 77 72 73 69 58 42 27 19 16 15 13 11 11 10 10 10 10 10 10 11 11
85 76 74 82 94 100 100 96 85 79 83 82 64 56 47 30 21 15 13 12 10 9 9 9 9 9 10 10 10 10 10 10
62 81 85 97 99 93 91 90 82 76 65 58 47 47 28 16 13 11 9 8 7 7 7 8 8 8 9 9 10 10 10 9
99 100 94 91 87 83 75 74 70 67 60 48 33 21 15 13 10 8 7 7 7 8 8 8 8 8 9 9 9 10 9 9
100 100 100 98 83 79 89 74 67 62 47 29 19 15 11 9 8 7 7 8 8 8 8 8 9 8 8 8 8 7 6 5
Wind_Speed
33 34 34 38 42 43 42 42 43 45 46 48 49 52 54 53 52 51 53 53 55 56 57 59 60 61 62 62 63 64 63 62
39 43 45 43 47 47 46 47 49 51 53 55 55 57 60 62 61 61 59 60 62 63 64 67 68 67 68 70 71 72 72 73
42 43 44 47 51 54 53 52 54 55 58 59 58 58 59 63 65 68 68 68 69 70 72 74 76 79 80 81 81 82 82 84
49 47 48 50 53 56 59 58 60 62 59 60 61 63 65 68 71 73 75 77 78 80 83 85 89 93 94 95 97 97 96 94
48 54 52 53 55 58 58 61 60 62 62 63 66 70 71 73 76 79 82 86 89 93 95 97 100 103 105 105 105 103 103 100
55 53 53 54 56 57 58 59 62 65 70 72 73 75 78 81 86 89 91 93 97 101 106 108 108 108 108 107 107 107 103 101
51 50 52 55 57 60 62 66 69 74 76 79 83 88 92 94 97 99 102 103 106 109 111 111 110 110 110 108 104 101 95 94
50 52 55 58 60 62 66 71 75 80 84 87 90 93 96 100 103 103 105 106 107 109 111 110 106 107 107 103 98 94 87 84
54 56 59 61 64 68 72 77 82 84 87 91 95 98 101 102 105 109 109 111 112 111 109 107 105 102 98 97 93 85 79 75
58 60 62 66 70 75 79 82 86 89 91 95 98 103 107 110 113 115 113 114 116 112 110 106 99 94 91 89 84 80 75 73
63 66 69 73 78 83 85 87 88 92 95 98 102 108 110 115 115 115 116 112 112 111 106 98 93 87 84 82 81 78 75 74
72 75 79 82 84 84 84 90 96 97 103 107 112 116 119 122 120 118 116 112 111 104 99 94 90 87 83 81 79 77 74 76
76 78 77 77 81 86 90 97 101 108 111 115 120 125 128 128 124 123 118 113 107 100 96 93 89 85 83 81 78 76 76 77
74 79 83 87 90 94 101 105 110 114 118 122 125 131 133 131 126 120 113 105 102 97 94 92 89 86 82 78 77 75 74 74
84 87 92 95 99 104 109 112 116 121 126 129 131 137 140 127 118 111 105 102 100 97 94 90 88 84 80 77 74 72 71 72
89 94 100 105 108 111 116 120 124 128 133 137 138 138 127 116 109 103 101 100 98 94 90 86 81 77 75 72 69 67 65 65
97 102 105 108 114 117 122 129 134 136 137 137 135 128 116 109 106 103 99 96 92 87 83 78 74 70 66 63 61 61 60 60
103 109 115 119 124 125 129 135 140 141 136 133 122 111 108 108 106 101 95 90 85 80 75 71 68 64 61 59 57 57 57 56
110 116 122 125 129 133 141 141 141 135 128 120 113 108 106 104 99 92 86 80 77 73 69 64 62 60 57 55 54 54 54 51
Wind_Direction
304 307 310 318 324 319 319 320 318 316 315 315 314 316 316 314 311 309 308 308 307 305 303 301 299 297 294 291 288 286 285 283
306 304 306 307 315 318 313 310 309 310 311 310 311 311 311 310 309 308 306 304 302 300 298 296 293 291 290 288 286 284 282 281
302 309 309 301 302 310 310 308 308 310 310 310 312 312 313 313 313 311 309 306 303 302 300 299 297 296 294 291 288 286 284 281
301 306 301 306 307 303 305 310 311 313 314 316 317 316 315 314 313 310 307 306 303 302 299 298 298 297 296 294 292 290 286 283
302 302 307 303 307 309 310 312 315 314 314 314 313 312 313 311 308 306 304 303 302 300 299 298 297 295 295 294 291 288 286 283
311 309 305 306 307 308 309 311 312 312 311 311 310 308 306 305 304 303 302 302 302 303 301 299 297 296 295 294 291 291 288 285
304 304 304 303 303 304 308 309 309 309 309 308 306 304 304 304 303 303 303 302 301 300 300 300 298 295 294 294 292 290 287 284
300 302 304 306 306 305 306 307 307 306 305 304 302 302 303 302 302 302 302 303 302 302 301 300 297 296 295 295 293 291 287 282
303 303 305 305 304 305 304 302 302 303 302 303 305 306 306 306 306 308 307 306 304 302 301 300 298 296 295 294 292 290 287 283
306 307 306 305 304 302 303 303 304 305 306 307 309 311 311 310 309 309 307 306 307 304 303 301 298 297 295 294 292 290 287 286
309 308 307 306 304 304 304 305 307 309 310 311 312 314 313 313 313 311 307 306 305 304 302 300 299 297 295 293 292 290 289 288
309 308 306 305 305 306 306 310 313 311 315 314 313 315 315 315 314 311 310 309 306 305 303 302 301 299 296 294 292 291 289 288
307 307 309 311 313 314 315 314 314 314 312 313 315 316 316 316 314 313 311 310 308 307 305 303 301 298 296 294 291 289 287 285
314 315 315 315 313 313 313 313 313 312 313 313 315 315 315 315 315 312 310 308 307 305 303 300 298 296 294 292 289 287 285 282
318 317 317 315 315 315 314 313 312 312 312 313 314 316 316 315 313 310 309 307 306 304 301 299 297 296 294 292 290 288 286 283
317 317 318 318 317 316 314 313 312 312 312 313 314 316 315 312 311 309 308 307 303 301 301 299 297 295 295 294 291 289 285 282
318 319 318 317 315 315 315 314 314 313 313 316 316 314 313 312 311 309 306 305 304 303 302 300 299 297 295 292 290 287 284 282
318 318 318 317 316 315 315 315 315 315 315 314 314 314 314 313 311 309 308 307 306 304 302 301 300 298 296 292 288 286 284 284
317 316 316 315 315 316 318 316 315 314 314 314 315 315 314 312 310 310 309 307 306 305 304 303 300 298 294 291 288 286 284 283